Scott AFB, IL

7:07 PM CST on February 19, 2017 (GMT -0600)
Scott Air Force Base-Midamerica

Weather History for KBLV - February, 2014

Change the Weather History Date:

Wednesday, February 19, 2014

  Actual Average Record
Temperature  
Mean Temperature 42 °F -  
Max Temperature 51 °F 48 °F 75 °F (2016)
Min Temperature 32 °F 29 °F -2 °F (1993)
Degree Days  
Heating Degree Days 24    
Moisture  
Dew Point 37 °F    
Average Humidity 78    
Maximum Humidity 100    
Minimum Humidity 62    
Precipitation  
Precipitation 0.00 in - - ()
Sea Level Pressure  
Sea Level Pressure 29.95 in    
Wind  
Wind Speed 6 mph (East)    
Max Wind Speed 12 mph    
Max Gust Speed -    
Visibility 9 miles    
Events Rain    
Averages and records for this station are not official NWS values.
T = Trace of Precipitation, MM = Missing Value Source: NWS Daily Summary

Daily Weather History Graph

Daily Weather History Graph

Search for Another Location

Airport or City:

Trip Planner

Search our weather history database for the weather conditions in past years. The results will help you decide how hot, cold, wet, or windy it might be!

Date:

Astronomy

Feb. 19, 2014 Rise Set
Actual Time 6:45 AM CST 5:41 PM CST
Civil Twilight 6:18 AM CST 6:08 PM CST
Nautical Twilight 5:47 AM CST 6:39 PM CST
Astronomical Twilight 5:16 AM CST 7:10 PM CST
Moon 10:31 PM CST (2/19) 8:54 AM CST (2/19)
Length of Visible Light 11h 50m
Length of Day
10h 56m
Waning Gibbous, 79% of the Moon is Illuminated
Feb 19
Waning Gibbous
Feb 22
Last Quarter
Mar 1
New
Mar 8
First Quarter
Mar 16
Full

Hourly Weather History & Observations

Time (CST) Temp. Windchill Dew Point Humidity Pressure Visibility Wind Dir Wind Speed Gust Speed Precip Events Conditions
12:58 AM 41.0 °F 37.1 °F 37.4 °F 87% 29.81 in 10.0 mi West 5.8 mph - N/A   Clear
1:58 AM 44.6 °F 38.8 °F 33.8 °F 66% 29.83 in 10.0 mi NW 11.5 mph - N/A   Clear
2:58 AM 41.0 °F 35.8 °F 32.0 °F 70% 29.88 in 10.0 mi WNW 8.1 mph - N/A   Clear
3:58 AM 39.2 °F 37.0 °F 32.0 °F 75% 29.91 in 10.0 mi WNW 3.5 mph - N/A   Clear
4:58 AM 32.0 °F 28.7 °F 32.0 °F 100% 29.93 in 10.0 mi Variable 3.5 mph - N/A   Clear
5:58 AM 37.4 °F 34.9 °F 32.0 °F 81% 29.96 in 10.0 mi Variable 3.5 mph - N/A   Clear
6:58 AM 35.6 °F - 32.0 °F 87% 29.98 in 10.0 mi WNW 1.2 mph - N/A   Clear
7:58 AM 39.0 °F - 33.8 °F 82% 30.01 in 10.0 mi Variable 2.3 mph - N/A   Clear
8:58 AM 43.5 °F 41.9 °F 35.8 °F 74% 30.05 in 10.0 mi West 3.5 mph - N/A   Clear
9:58 AM 46.4 °F - 36.9 °F 69% 30.06 in 10.0 mi Calm Calm - N/A   Clear
10:58 AM 47.8 °F - 36.0 °F 63% 30.02 in 10.0 mi East 4.6 mph - N/A   Partly Cloudy
11:58 AM 49.6 °F - 38.8 °F 66% 30.07 in 10.0 mi Variable 3.5 mph - N/A   Partly Cloudy
12:58 PM 50.2 °F - 37.4 °F 62% 30.04 in 10.0 mi Variable 2.3 mph - N/A   Partly Cloudy
1:58 PM 51.6 °F - 38.8 °F 62% 30.01 in 10.0 mi South 4.6 mph - N/A   Scattered Clouds
2:58 PM 50.7 °F - 39.6 °F 66% 30.00 in 10.0 mi ESE 6.9 mph - N/A   Partly Cloudy
3:58 PM 49.1 °F - 39.4 °F 69% 29.99 in 10.0 mi East 4.6 mph - N/A   Clear
4:58 PM 47.1 °F - 40.1 °F 77% 29.97 in 10.0 mi East 8.1 mph - N/A   Clear
5:58 PM 43.7 °F 41.1 °F 38.7 °F 82% 29.98 in 4.0 mi East 4.6 mph - N/A   Haze
6:08 PM 42.8 °F 39.3 °F 39.2 °F 87% 29.96 in 5.0 mi East 5.8 mph - N/A   Haze
6:18 PM 42.8 °F 39.3 °F 37.4 °F 81% 29.96 in 5.0 mi ESE 5.8 mph - N/A   Haze
6:58 PM 41.7 °F 38.0 °F 38.3 °F 88% 29.97 in 9.0 mi East 5.8 mph - N/A   Clear
7:58 PM 40.6 °F 36.0 °F 36.5 °F 85% 29.95 in 10.0 mi ESE 6.9 mph - N/A   Clear
8:58 PM 41.0 °F 34.7 °F 37.2 °F 86% 29.92 in 6.0 mi ESE 10.4 mph - N/A   Mostly Cloudy
9:58 PM 41.7 °F 35.6 °F 37.8 °F 86% 29.88 in 6.0 mi East 10.4 mph - N/A   Haze
10:58 PM 42.8 °F 38.0 °F 37.9 °F 83% 29.86 in 10.0 mi East 8.1 mph - N/A   Overcast
11:46 PM 42.8 °F 39.3 °F 37.4 °F 81% 29.82 in 10.0 mi East 5.8 mph - N/A Rain Light Rain
11:56 PM 42.8 °F 38.6 °F 37.4 °F 81% 29.82 in 10.0 mi East 6.9 mph - N/A   Overcast
11:58 PM 43.2 °F 39.0 °F 37.8 °F 81% 29.84 in 10.0 mi East 6.9 mph - 0.00 in   Overcast